Location: Unspecified
(0.0000°N, 0.0000°E)
Time: 05:12:54
(UTC+00:00)

S-56A Canister/Altair - Pass Details

Date: 07 December 2023
Orbit: 640 x 2488 km, 38.9° (Epoch: 24 February)

Event Time Altitude Azimuth Distance (km) Brightness Sun altitude
Rises 22:54:49 0° 244° (WSW) 5,367 12.1 -63.5°
Reaches altitude 10° 23:03:27 10° 210° (SSW) 4,837 11.8 -64.5°
Maximum altitude 23:06:03 11° 199° (SSW) 4,883 11.8 -64.8°
Drops below altitude 10° 23:08:44 10° 188° (S) 5,024 11.9 -65.1°
Sets 23:18:52 0° 154° (SSE) 6,164 12.4 -66.0°
